Location: Melbourne
(37.8170°S, 144.9670°E)
Time: 21:31:05
(UTC+10:00)

CZ-3 R/B - Visible Passes

Search period start: 29 July 2015 00:00
Search period end: 08 August 2015 00:00
Orbit: 182 x 12582 km, 28.5° (Epoch: 28 July)

Date Brightness Start Highest point End Pass type
(mag) Time Alt. Az. Time Alt. Az. Time Alt. Az.
29 Jul 4.8 03:02:34 10° WNW 04:28:35 66° N 04:43:00 10° E visible
29 Jul 6.3 21:58:16 10° NNW 23:58:36 35° ENE 00:19:52 10° E visible
30 Jul 4.9 02:53:05 10° WNW 04:21:47 66° N 04:36:47 10° E visible
30 Jul 6.3 21:50:06 10° NNW 23:52:15 34° ENE 00:12:30 10° E visible
31 Jul 4.9 02:42:24 10° WNW 04:13:57 67° N 04:29:38 10° E visible
31 Jul 6.3 21:41:03 10° NNW 23:44:55 33° ENE 00:04:07 10° E visible
01 Aug 5.0 02:30:35 10° WNW 04:05:04 68° N 04:21:33 10° E visible
01 Aug 6.4 21:31:09 10° NNW 23:36:36 31° ENE 23:54:41 10° E visible
02 Aug 5.1 02:17:41 10° WNW 03:55:07 68° N 04:12:31 10° E visible
02 Aug 6.4 21:20:23 10° N 23:27:20 29° ENE 23:44:13 10° E visible
03 Aug 5.1 02:03:45 10° WNW 03:44:05 68° N 04:02:34 10° E visible
03 Aug 6.4 21:08:47 10° N 23:17:07 28° E 23:32:41 10° E visible
04 Aug 5.2 01:48:51 10° WNW 03:31:55 69° N 03:51:40 10° E visible
04 Aug 6.5 20:56:22 10° N 23:05:57 25° E 23:20:03 10° E visible
05 Aug 5.3 01:33:03 10° WNW 03:18:36 69° N 03:39:49 10° E visible
05 Aug 6.5 20:43:08 10° N 22:53:50 23° E 23:06:18 10° E visible
06 Aug 5.4 01:16:23 10° WNW 03:04:07 69° N 03:27:02 10° E visible
06 Aug 4.0 06:59:00 10° W 07:27:27 37° NW 07:34:26 10° NNE visible
06 Aug 6.6 20:29:08 10° N 21:33:37 36° NE 22:51:24 10° E visible
07 Aug 5.5 00:58:56 10° WNW 02:48:23 70° N 03:13:17 10° E visible
07 Aug 4.1 06:40:53 10° W 07:13:27 40° NW 07:20:57 10° NNE visible
07 Aug 6.6 20:14:23 10° N 21:14:33 35° NE 22:35:18 10° E visible
